K3TE Weather Reports


Display with metric or nautical units.
time (UTC)temp
F
wind
direction
speed
MPH
gust
MPH
rain 1hr
in
rain 24hr
in
rain mn
in
humidity
%
barometer
mb
20260506101557 61 139 2.0 7.0 0.00 0.00 0.00 76 1009.6
20260506100057 61 207 2.0 6.0 0.00 0.00 0.00 75 1009.5
20260506094600 61 171 0.0 2.0 0.00 0.00 0.00 74 1009.6
20260506093113 62 0 0.0 6.0 0.00 0.00 0.00 72 1009.8
20260506091558 62 187 1.0 6.0 0.00 0.00 0.00 71 1009.7
20260506090121 61 187 2.0 6.0 0.00 0.00 0.00 71 1009.7
20260506084558 61 161 1.0 6.0 0.00 0.03 0.00 70 1009.8
20260506083058 62 0 1.0 5.0 0.00 0.03 0.00 69 1009.8
20260506081557 62 178 2.0 6.0 0.00 0.03 0.00 67 1009.8
20260506080110 62 145 2.0 6.0 0.00 0.03 0.00 66 1009.8
20260506073111 63 186 1.0 8.0 0.00 0.14 0.00 65 1010.0
20260506071557 62 159 1.0 4.0 0.00 0.14 0.00 65 1010.1
20260506061604 64 184 2.0 9.0 0.00 0.14 0.00 61 1010.6
20260506050104 64 276 1.0 9.0 0.00 0.14 0.00 58 1011.1
20260506044611 64 305 1.0 10.0 0.00 0.14 0.00 60 1011.1
20260506043059 64 0 1.0 7.0 0.00 0.14 0.00 59 1011.2
20260506041610 64 180 1.0 9.0 0.00 0.14 0.00 58 1011.2
20260506040104 64 159 0.0 8.0 0.00 0.14 0.00 56 1011.2
20260506034602 64 139 0.0 3.0 0.00 0.14 0.14 55 1011.2
20260506033059 66 0 1.0 7.0 0.00 0.14 0.14 53 1011.1
20260506031600 66 164 0.0 5.0 0.00 0.14 0.14 50 1011.2
20260506024608 67 180 2.0 8.0 0.00 0.14 0.14 48 1011.2
20260506023102 68 176 2.0 7.0 0.00 0.14 0.14 46 1011.3
20260506021558 69 148 3.0 9.0 0.00 0.14 0.14 45 1011.2
20260506020123 70 182 2.0 13.0 0.00 0.14 0.14 44 1011.2
20260506014559 70 160 2.0 10.0 0.00 0.14 0.14 45 1011.0
20260506013057 71 0 3.0 12.0 0.00 0.14 0.14 45 1010.9
20260506011600 71 222 2.0 12.0 0.00 0.14 0.14 44 1010.6
20260506010104 71 156 4.0 13.0 0.00 0.14 0.14 44 1010.4
20260506004600 71 173 5.0 13.0 0.00 0.14 0.14 46 1010.2
20260506003058 71 225 4.0 13.0 0.00 0.14 0.14 47 1010.3
20260506001607 72 186 3.0 13.0 0.00 0.14 0.14 45 1010.2
20260506000123 72 201 3.0 10.0 0.00 0.14 0.14 46 1010.1
20260505234616 72 158 4.0 14.0 0.00 0.14 0.14 44 1009.9
20260505233100 73 199 2.0 20.0 0.00 0.14 0.14 43 1009.8
20260505231603 74 0 0.0 0.0 0.00 0.14 0.14 41 1009.7
20260505230100 74 0 0.0 0.0 0.00 0.14 0.14 40 1009.4
20260505224559 75 0 0.0 0.0 0.00 0.14 0.14 39 1009.6
20260505223105 75 0 0.0 18.0 0.00 0.14 0.14 37 1009.4
20260505221603 76 157 7.0 16.0 0.00 0.14 0.14 36 1009.3
20260505220108 76 213 4.0 15.0 0.00 0.14 0.14 36 1009.4
20260505214610 76 0 0.0 15.0 0.00 0.14 0.14 37 1009.1
20260505213058 75 180 4.0 12.0 0.00 0.14 0.14 38 1009.3
20260505211634 76 0 1.0 17.0 0.00 0.14 0.14 38 1009.1
20260505210059 76 193 6.0 18.0 0.00 0.14 0.14 39 1009.3
20260505204605 76 271 7.0 16.0 0.00 0.14 0.14 38 1009.2
20260505203100 77 168 4.0 23.0 0.00 0.14 0.14 38 1009.3
20260505201558 78 262 5.0 15.0 0.00 0.14 0.14 35 1009.4
20260505200058 78 185 3.0 17.0 0.00 0.14 0.14 40 1009.1
20260505194600 78 225 3.0 14.0 0.00 0.14 0.14 39 1009.3
20260505193058 77 237 5.0 22.0 0.00 0.14 0.14 37 1009.8
20260505191605 77 191 6.0 21.0 0.00 0.14 0.14 36 1009.6
20260505190114 78 203 6.0 17.0 0.00 0.14 0.14 37 1010.1
20260505184600 77 232 3.0 16.0 0.00 0.14 0.14 42 1010.3
20260505183058 77 217 6.0 15.0 0.00 0.14 0.14 37 1010.4
20260505181641 77 260 3.0 12.0 0.00 0.14 0.14 39 1010.5
20260505180105 78 260 6.0 14.0 0.00 0.14 0.14 40 1010.6
20260505174600 77 0 3.0 25.0 0.00 0.14 0.14 49 1010.7
20260505173059 77 210 1.0 15.0 0.00 0.14 0.14 40 1010.9
20260505171605 77 167 4.0 12.0 0.00 0.14 0.14 42 1011.0
20260505170059 77 151 5.0 16.0 0.00 0.14 0.14 46 1011.1
20260505164559 76 166 3.0 9.0 0.00 0.14 0.14 49 1011.2
20260505163100 75 250 1.0 5.0 0.00 0.14 0.14 48 1011.4
20260505161558 75 191 1.0 11.0 0.00 0.14 0.14 49 1011.7
20260505153100 73 327 3.0 9.0 0.00 0.14 0.14 51 1012.0
20260505151603 73 146 1.0 7.0 0.00 0.14 0.14 53 1012.0
20260505140109 67 207 3.0 10.0 0.00 0.14 0.14 64 1012.4
20260505124600 62 212 0.0 7.0 0.00 0.14 0.14 72 1012.8
20260505123111 61 0 1.0 7.0 0.00 0.14 0.14 74 1012.6
20260505121600 60 185 0.0 3.0 0.00 0.14 0.14 76 1012.2
20260505120128 59 163 1.0 6.0 0.00 0.14 0.14 80 1012.3
20260505114559 57 0 0.0 0.0 0.00 0.14 0.14 81 1012.2
20260505113058 56 0 0.0 0.0 0.00 0.14 0.14 85 1012.2
20260505111603 54 0 0.0 0.0 0.00 0.14 0.14 89 1012.0
20260505110114 53 0 0.0 0.0 0.00 0.14 0.14 92 1011.8